Location: Bessat
(45.8735°N, 1.9924°E)
Time: 04:00:36
(UTC+00:00)

SPOT 5 - Pass Details

Date: 11 May 2021
Orbit: 623 x 814 km, 98.2° (Epoch: 14 June)

Event Time Altitude Azimuth Distance (km) Brightness Sun altitude
Exits shadow 21:38:30 34° 178° (S) 1,247 3.6 -19.6°
Maximum altitude 21:40:45 76° 257° (WSW) 810 3.1 -19.8°
Drops below altitude 10° 21:46:03 10° 344° (NNW) 2,388 6.7 -20.3°
Sets 21:48:27 0° 346° (NNW) 3,337 7.7 -20.5°
